Location: Nairn
(57.5833°N, 3.8667°W)
Time: 03:06:37
(UTC+00:00)

Vanguard 1 Rocket - Pass Details

Date: 29 November 2020
Orbit: 655 x 4221 km, 34.3° (Epoch: 20 January)

Event Time Altitude Azimuth Distance (km) Brightness Sun altitude
Exits shadow 03:14:36 32° 189° (S) 5,000 10.8 -40.2°
Maximum altitude 03:17:17 33° 177° (S) 4,769 10.7 -39.9°
Drops below altitude 10° 03:30:51 10° 122° (ESE) 5,121 11.5 -38.2°
Sets 03:34:33 0° 112° (ESE) 5,685 12.0 -37.8°
